Wind_Speed
39 40 40 40 42 42 43 45 46 47 48 49 49 50 50 51 52 53 54 55 56 57 58 59 60 61 61 62 62 61 61 61 61 62 62 63 63 63
40 41 41 42 43 44 45 46 47 47 48 49 50 50 50 51 51 51 51 52 53 54 55 56 56 56 56 56 56 56 56 56 56 56 56 58 58 59
40 41 42 43 44 45 45 46 46 47 48 48 49 49 49 48 48 48 49 50 50 51 52 52 52 51 51 51 51 51 51 52 51 50 50 51 53 53
40 41 42 43 43 44 44 45 45 46 46 46 45 45 45 45 45 46 46 46 46 46 46 46 45 44 44 44 44 45 45 46 46 46 46 45 46 46
39 40 41 41 42 42 42 42 42 42 42 41 41 41 41 42 42 42 42 41 41 40 40 39 38 38 38 38 38 38 38 38 38 39 39 39 39 40
38 38 39 39 39 39 39 38 38 38 38 38 38 39 38 38 38 37 37 37 36 35 34 33 33 33 33 33 33 32 32 31 31 32 32 33 34 36
35 36 36 36 35 35 36 36 36 36 36 36 36 36 35 34 33 33 33 33 32 31 30 29 28 28 28 28 27 27 27 27 27 27 28 29 30 32
33 32 32 33 33 33 34 33 33 33 33 33 33 32 31 31 31 31 30 29 28 27 25 25 25 24 24 24 24 24 24 24 24 25 26 27 28 30
30 30 30 30 31 31 31 31 30 30 30 30 30 29 29 29 28 27 26 25 23 22 22 22 22 22 22 22 21 22 22 22 22 23 25 26 27 28
28 28 28 28 28 28 28 27 27 27 27 27 27 26 25 24 24 24 23 22 20 20 20 20 20 20 20 20 21 21 21 22 23 24 25 26 26 27
25 25 25 25 25 25 25 25 25 24 24 24 24 23 23 22 22 21 20 20 19 19 19 19 19 20 20 21 21 22 22 23 24 25 25 25 25 25
23 22 22 22 22 22 22 23 23 23 23 22 22 21 20 20 20 19 18 18 17 18 18 18 19 19 21 22 22 22 23 24 24 24 24 23 23 23
20 20 20 20 21 21 21 21 21 21 21 21 20 19 19 18 18 17 17 16 16 17 17 18 19 20 21 22 22 22 23 24 24 23 22 21 21 21
19 18 19 19 19 19 19 19 19 19 19 19 18 17 17 16 16 16 15 14 15 16 17 17 19 20 21 21 21 22 23 23 23 23 22 21 20 19
17 17 18 18 18 18 18 18 18 18 18 17 16 16 15 15 14 14 14 13 15 16 16 17 18 19 20 21 21 22 23 23 23 23 22 21 20 19
15 16 16 16 17 17 16 16 17 17 16 16 15 15 14 14 14 13 13 14 15 15 16 16 17 19 20 21 22 23 23 23 23 23 23 22 21 20
13 13 14 15 14 15 15 15 16 16 15 14 14 14 14 14 13 13 13 13 14 14 15 16 17 18 20 21 22 23 24 24 24 24 24 24 22 21
12 12 13 13 14 14 14 15 15 15 14 14 13 13 13 13 13 12 11 12 12 13 14 15 17 18 20 21 22 23 24 24 25 25 25 25 24 22
11 12 12 13 13 13 14 14 14 14 13 13 12 12 12 12 12 11 11 11 11 12 13 14 16 17 19 20 22 22 23 24 25 25 25 25 24 23
11 11 12 12 12 13 13 14 13 13 12 12 11 11 11 11 11 11 10 11 11 12 13 14 15 17 18 20 21 22 23 24 25 25 25 25 25 25
11 11 11 12 12 13 13 13 13 12 12 11 10 10 10 10 10 10 10 10 11 12 12 14 15 16 18 19 21 22 23 25 25 26 26 26 26 26
10 11 11 12 12 12 12 12 12 11 11 10 10 10 10 9 9 9 10 10 10 11 12 14 15 16 17 19 20 21 23 24 25 26 26 26 26 25
10 11 11 12 12 12 12 12 11 11 10 10 10 9 9 9 9 9 10 10 11 11 12 14 15 16 17 19 20 21 22 23 24 25 26 27 26 27
Wind_Direction
287 286 285 286 286 285 285 286 287 287 287 288 288 287 287 287 287 287 287 287 285 284 282 281 280 279 278 277 277 276 275 275 274 273 272 271 270 271
287 286 286 286 286 287 288 288 288 288 288 288 288 289 289 289 289 289 289 289 287 286 285 284 283 281 280 279 279 278 278 277 276 274 274 272 271 270
287 287 287 287 287 288 289 289 289 290 290 290 290 290 290 291 291 292 292 292 291 291 290 289 287 286 285 284 284 283 282 279 278 277 276 275 274 274
287 287 288 288 288 289 290 290 290 291 292 292 292 292 293 294 294 295 296 295 296 296 296 295 293 292 292 290 288 286 284 282 278 277 277 277 276 276
289 288 289 290 290 291 291 291 292 293 293 294 295 296 297 298 299 299 299 300 301 301 300 299 298 297 295 293 290 288 286 284 282 281 280 279 277 276
289 289 290 291 291 291 291 292 293 294 295 296 297 299 300 301 302 303 305 305 305 306 306 304 302 300 299 297 295 293 291 289 288 287 285 284 282 282
291 291 292 292 292 293 293 294 295 296 297 298 299 301 303 305 306 307 308 308 308 309 309 308 307 306 305 303 301 299 297 295 293 292 290 289 288 288
293 293 294 294 293 295 296 296 297 298 299 300 302 304 305 307 308 309 310 310 311 312 313 313 313 312 311 310 309 307 304 301 300 298 297 296 295 293
294 294 294 294 296 297 297 299 300 301 302 303 305 306 308 310 311 311 312 314 315 316 317 320 321 320 320 319 317 314 311 309 308 307 306 304 301 299
294 295 295 296 298 299 301 302 303 304 305 306 307 309 311 313 314 315 318 320 321 322 324 326 328 328 327 326 322 319 317 315 313 312 311 308 306 304
297 298 299 300 302 304 305 306 308 309 310 310 311 312 314 316 318 320 322 324 326 327 329 331 332 332 331 331 329 326 324 322 320 317 315 313 310 309
301 302 303 305 308 310 311 312 313 314 315 316 317 318 319 322 324 325 326 328 329 331 332 333 334 335 335 334 334 333 331 329 327 325 322 319 316 315
302 304 306 309 311 313 314 316 317 318 319 319 320 321 322 325 327 328 329 331 333 334 336 338 340 340 340 340 340 340 339 339 337 334 331 329 326 324
304 306 309 311 314 316 317 319 320 322 323 324 325 326 326 327 330 331 332 335 338 340 342 344 345 346 347 348 348 347 346 346 346 346 344 341 338 335
306 310 313 316 318 320 322 323 325 326 326 326 327 329 330 331 333 335 338 341 344 345 347 349 352 353 353 354 355 354 353 354 354 354 353 351 350 348
308 313 317 319 322 324 325 327 328 329 329 329 330 333 335 337 337 340 343 346 348 350 353 355 357 358 358 359 0 1 1 2 2 2 2 1 0 359
315 318 321 323 326 327 328 329 330 331 332 332 334 337 340 343 343 343 345 349 352 355 358 360 1 2 4 5 6 7 7 8 9 9 9 9 9 7
321 324 326 327 328 328 329 331 332 334 336 337 338 340 343 346 348 348 350 353 356 359 2 4 5 7 9 10 10 11 11 12 13 13 15 16 17 18
326 328 329 329 330 331 333 334 335 338 339 340 342 343 346 349 352 354 357 359 1 4 6 8 10 11 13 13 13 14 15 16 18 18 21 23 25 27
329 330 331 332 333 334 335 336 338 341 343 344 346 348 351 355 358 1 3 4 6 9 12 13 14 15 15 16 18 19 20 21 23 24 26 28 30 33
334 336 337 339 340 340 341 343 345 346 347 348 350 354 357 0 4 9 12 14 15 16 17 17 17 17 18 20 22 24 25 26 27 28 30 32 33 35
342 343 345 346 347 348 349 350 352 353 355 357 360 3 5 8 13 20 24 24 24 24 23 23 23 23 24 26 27 29 30 31 32 33 34 36 38 40
351 352 354 354 355 356 358 359 1 3 6 9 12 15 20 24 30 34 36 35 33 32 31 31 31 32 32 32 32 33 35 36 37 38 39 40 42 43
Height
5777 5774 5771 5769 5766 5763 5760 5757 5754 5749 5745 5741 5737 5733 5728 5723 5718 5712 5707 5701 5695 5689 5684 5679 5674 5670 5666 5663 5660 5657 5655 5653 5651 5650 5648 5647 5647 5646
5766 5763 5761 5758 5755 5752 5748 5745 5741 5737 5733 5728 5724 5719 5714 5709 5704 5698 5692 5686 5680 5674 5668 5663 5658 5653 5649 5645 5642 5640 5637 5636 5634 5632 5631 5629 5628 5627
5755 5753 5750 5746 5743 5740 5736 5733 5729 5725 5720 5715 5710 5705 5700 5695 5689 5684 5678 5672 5666 5660 5654 5648 5643 5638 5634 5630 5627 5624 5622 5620 5618 5617 5615 5613 5612 5610
5744 5741 5738 5735 5731 5728 5724 5720 5717 5712 5708 5703 5698 5693 5688 5682 5677 5671 5665 5659 5653 5647 5641 5636 5630 5626 5621 5618 5614 5611 5609 5606 5604 5602 5601 5600 5598 5595
5733 5730 5727 5724 5720 5717 5713 5709 5705 5701 5696 5692 5687 5682 5676 5671 5666 5660 5654 5649 5643 5637 5631 5626 5621 5616 5611 5607 5604 5601 5598 5595 5592 5590 5588 5586 5584 5582
5723 5720 5716 5713 5710 5706 5702 5699 5695 5690 5686 5681 5677 5672 5667 5661 5656 5650 5645 5639 5634 5629 5623 5618 5613 5608 5604 5600 5596 5592 5589 5586 5583 5580 5578 5576 5574 5571
5713 5710 5706 5703 5699 5696 5693 5689 5685 5681 5676 5672 5667 5663 5658 5653 5648 5642 5637 5632 5627 5622 5616 5611 5607 5602 5597 5593 5589 5585 5582 5578 5575 5572 5569 5567 5564 5561
5704 5700 5697 5694 5690 5687 5684 5680 5676 5672 5668 5664 5659 5655 5650 5645 5641 5636 5631 5626 5621 5616 5611 5606 5602 5597 5592 5588 5584 5580 5576 5572 5569 5565 5562 5558 5555 5551
5695 5692 5689 5686 5682 5679 5676 5672 5668 5664 5661 5657 5653 5648 5644 5639 5634 5630 5625 5620 5616 5611 5607 5602 5598 5593 5588 5584 5580 5575 5571 5567 5563 5559 5555 5551 5547 5543
5688 5684 5681 5678 5675 5671 5668 5665 5661 5658 5654 5650 5646 5642 5637 5633 5629 5625 5620 5616 5612 5607 5603 5599 5594 5590 5585 5581 5576 5571 5567 5562 5558 5553 5549 5544 5540 5535
5681 5678 5675 5671 5668 5665 5662 5658 5655 5651 5647 5644 5640 5636 5632 5628 5624 5620 5616 5612 5608 5604 5600 5596 5592 5587 5583 5578 5573 5567 5562 5557 5552 5547 5542 5537 5532 5528
5675 5672 5669 5666 5663 5659 5656 5653 5649 5646 5642 5638 5635 5631 5628 5624 5620 5617 5613 5610 5606 5602 5598 5594 5590 5585 5580 5575 5570 5564 5559 5553 5548 5542 5537 5531 5526 5521
5670 5667 5664 5661 5658 5655 5652 5649 5645 5641 5638 5634 5631 5627 5624 5621 5617 5614 5610 5607 5604 5600 5596 5592 5587 5582 5577 5572 5567 5561 5556 5550 5544 5538 5532 5527 5522 5517
5665 5663 5660 5657 5654 5651 5648 5645 5641 5638 5635 5631 5628 5625 5621 5618 5615 5611 5608 5605 5602 5598 5594 5590 5585 5581 5576 5570 5565 5559 5554 5548 5542 5536 5530 5524 5518 5513
5661 5659 5656 5654 5651 5648 5645 5641 5638 5635 5632 5628 5625 5622 5619 5616 5612 5609 5606 5603 5600 5596 5592 5588 5584 5580 5575 5570 5564 5559 5553 5547 5540 5534 5528 5522 5517 5511
5658 5655 5653 5650 5648 5645 5642 5639 5636 5632 5629 5626 5623 5620 5617 5614 5611 5608 5605 5602 5599 5595 5592 5588 5584 5579 5575 5570 5564 5558 5552 5546 5540 5534 5528 5522 5516 5510
5655 5652 5650 5648 5645 5642 5639 5636 5633 5630 5627 5623 5620 5618 5615 5612 5609 5606 5604 5601 5598 5595 5591 5588 5584 5580 5575 5570 5565 5559 5553 5547 5541 5535 5528 5522 5516 5511
5652 5650 5648 5645 5642 5640 5637 5634 5631 5628 5624 5621 5619 5616 5613 5610 5608 5605 5603 5601 5598 5595 5591 5588 5584 5580 5576 5571 5566 5560 5555 5549 5543 5536 5530 5524 5518 5512
5650 5648 5646 5643 5640 5638 5635 5632 5629 5626 5623 5620 5617 5615 5612 5610 5607 5605 5602 5600 5598 5595 5592 5589 5585 5581 5577 5573 5568 5562 5557 5551 5545 5539 5533 5527 5521 5516
5648 5646 5644 5641 5639 5636 5633 5630 5627 5624 5621 5619 5616 5614 5611 5609 5607 5604 5602 5600 5598 5595 5592 5589 5586 5583 5579 5575 5570 5565 5559 5553 5548 5542 5536 5531 5525 5520
5647 5644 5642 5639 5637 5634 5631 5628 5625 5623 5620 5618 5615 5613 5611 5609 5606 5604 5602 5600 5598 5596 5593 5591 5587 5584 5580 5576 5572 5567 5562 5557 5551 5546 5540 5535 5530 5525
5646 5643 5641 5638 5636 5633 5630 5627 5624 5622 5619 5617 5615 5613 5611 5609 5607 5605 5603 5601 5599 5597 5595 5592 5589 5586 5582 5579 5575 5570 5566 5561 5556 5550 5545 5540 5536 5531
5645 5642 5640 5637 5635 5632 5629 5626 5624 5621 5619 5617 5615 5613 5611 5609 5608 5606 5604 5603 5601 5599 5597 5594 5591 5588 5585 5582 5578 5574 5570 5565 5561 5556 5551 5546 5541 5537